Home > Weather > Kailua-Kona > Past weeks

Flag for U.S.A. Weather for the Past 2 Weeks in Kailua-Kona, Hawaii, U.S.A.

Now
81 °F

Sunny.


Feels Like: 84 °F
Forecast: 67 / 75 °F
Wind: 8 mph from West

Location: Keahole Airport

Current Time: Feb 13, 2016 at 4:50:21 PM

Latest Report: Feb 13, 2016 at 3:53 PM


Visibility: 10 mi

Pressure: 29.96 "Hg

Humidity: 65%

Dew point: 68 °F

Location of Kailua-KonaLocation

Historic Weather in Kailua-Kona — Graph

°F

Kailua-Kona Temperature Yesterday

Maximum temperature yesterday: 81 °F (at 2:53 PM)
Minimum temperature yesterday: 70 °F (at 4:53 AM)
Average temperature yesterday: 75 °F

High & Low Weather Summary for the Past Weeks

 TemperatureHumidityPressure
High83 °F (Feb 3, 2:53 PM)89% (Feb 6, 9:18 PM)30.11 "Hg (Feb 6, 9:18 PM)
Low62 °F (Feb 8, 5:53 AM)38% (Feb 8, 9:53 AM)29.88 "Hg (Feb 7, 4:53 PM)
Average76 °F65%30.00 "Hg
* Reported Jan 29 2:53 PM — Feb 13 2:53 PM, Kailua-Kona, Weather by CustomWeather, © 2016

Note: Actual official high and low records may vary slightly from our data, if they occured in-between our weather recording intervals... More about our weather records

Advertising

Kailua-Kona Weather History for the Previous 24 Hours

 ConditionsComfort  
Time TempWeatherWind HumidityBarometerVisibility
2:53 PM
Sat, Feb 13
80 °FPassing clouds.9 mph64%29.97 "Hg10 mi
1:53 PM82 °FSunny.10 mph60%29.98 "Hg10 mi
12:53 PM81 °FSunny.8 mph62%30.01 "Hg10 mi
11:53 AM80 °FPassing clouds.9 mph64%30.04 "Hg10 mi
10:53 AM79 °FSunny.7 mph67%30.06 "Hg10 mi
9:53 AM79 °FSunny.7 mph62%30.06 "Hg10 mi
8:53 AM79 °FSunny.No wind52%30.07 "Hg10 mi
7:53 AM73 °FSunny.5 mph62%30.06 "Hg10 mi
6:53 AM69 °FClear.5 mph66%30.04 "Hg10 mi
3:53 AM70 °FClear.7 mph68%30.01 "Hg10 mi
2:53 AM71 °FClear.3 mph66%30.02 "Hg10 mi
1:53 AM72 °FClear.3 mph59%30.02 "Hg10 mi
12:53 AM73 °FClear.5 mph59%30.04 "Hg10 mi
11:53 PM
Fri, Feb 12
74 °FClear.5 mph60%30.05 "Hg10 mi
9:53 PM75 °FClear.5 mph55%30.06 "Hg10 mi
5:53 PM78 °FSunny.6 mph60%29.98 "Hg10 mi
4:53 PM80 °FSunny.7 mph51%29.96 "Hg10 mi
Weather by CustomWeather, © 2016

See weather overviewHow to use our weather pages